"Pseudo-MPEC" for 6HJ4621

Created 2026 Aug 26 0:35:02 UT using Find_Orb

Click here for an explanation of pseudo-MPECs

 
 Astrometry: 
     6HJ4621*KC2026 08 20.08087 19 54 06.95 -16 38 07.3    ~8OFo 18.6 GVNEOCPW94
     6HJ4621 KC2026 08 20.08711 19 54 06.68 -16 38 07.9    ~8OFo 18.4 GVNEOCPW94
     6HJ4621 KC2026 08 20.09333 19 54 06.45 -16 38 12.0    ~8OFo 19.0 GVNEOCPW94

Station data:
(W94) AMACS1, San Pedro de Atacama  (S22.953074 W68.179810)  Chile.  Observers
   A. Maury, G. Attard. Measurers A. Maury, G. Attard, D. Parrott. 0.28-m
   f/2.2 Schmidt + CCD.

Orbital elements:  6HJ4621
   Perihelion 2026 Jan 3.904204 +/- 508 TT = 21:42:03.1 (JD 2461044.404204)
Epoch 2026 Aug 20.0 TT = JDT 2461272.5   Earth MOID: 0.0139   Ju: 0.1113
M  10.047977874 +/- 70              (J2000 ecliptic)             AutoNEOCP
n   0.044051569 +/- 0.125           Peri.   45.991230 +/- 100
a   7.940145432 +/- 15              Node   134.575355 +/- 52
e   0.89615138 +/- 0.25             Incl.   19.514559 +/- 39
P  22.37395                H 13.98  G  0.15   U 11.4  SR
q 0.824573112 +/- 1.45    Q 15.05571775 +/- 43.7
From 3 observations 2026 Aug. 20 (17.9 min); mean residual 0".59
Residuals in arcseconds: 
260820 W94  .08+  .58-    260820 W94  .19-  1.2+    260820 W94  .11+  .59-    

Ephemerides (geocentric):
Date (UTC) HH   RA             Dec           delta  r     elong  mag " sig PA
---- --------  ------------   ------------  ------ ------ -----  --- --------
2026 08 26 01  19 50 41.204   -17 13 25.47  2.4167 3.2866 143.8 19.1 1239 101
2026 08 26 02  19 50 39.944   -17 13 39.41  2.4175 3.2870 143.7 19.2 1248 101
2026 08 26 03  19 50 38.687   -17 13 53.33  2.4183 3.2874 143.7 19.2 1257 101
2026 08 26 04  19 50 37.432   -17 14 07.25  2.4191 3.2878 143.6 19.2 1266 101
2026 08 26 05  19 50 36.180   -17 14 21.15  2.4199 3.2883 143.6 19.2 1276 101
2026 08 26 06  19 50 34.930   -17 14 35.05  2.4207 3.2887 143.5 19.2 1285 101
2026 08 26 07  19 50 33.683   -17 14 48.93  2.4214 3.2891 143.5 19.2 1294 101
2026 08 26 08  19 50 32.438   -17 15 02.79  2.4222 3.2895 143.4 19.2 1303 101
2026 08 26 09  19 50 31.196   -17 15 16.65  2.4230 3.2899 143.4 19.2 1313 101
2026 08 26 10  19 50 29.956   -17 15 30.49  2.4238 3.2903 143.4 19.2 1322 101
2026 08 26 11  19 50 28.719   -17 15 44.32  2.4246 3.2908 143.3 19.2 1331 101
2026 08 26 12  19 50 27.484   -17 15 58.14  2.4254 3.2912 143.3 19.2 1340 101
2026 08 26 13  19 50 26.251   -17 16 11.95  2.4262 3.2916 143.2 19.2 1350 101
2026 08 26 14  19 50 25.021   -17 16 25.75  2.4270 3.2920 143.2 19.2 1359 101
2026 08 26 15  19 50 23.794   -17 16 39.53  2.4278 3.2924 143.1 19.2 1368 101
2026 08 26 16  19 50 22.569   -17 16 53.31  2.4285 3.2928 143.1 19.2 1378 101
2026 08 26 17  19 50 21.346   -17 17 07.07  2.4293 3.2933 143.0 19.2 1387 101
2026 08 26 18  19 50 20.126   -17 17 20.81  2.4301 3.2937 143.0 19.2 1397 101
2026 08 26 19  19 50 18.909   -17 17 34.55  2.4309 3.2941 142.9 19.2 1406 102
2026 08 26 20  19 50 17.694   -17 17 48.28  2.4317 3.2945 142.9 19.2 1415 102
2026 08 26 21  19 50 16.481   -17 18 01.99  2.4325 3.2949 142.9 19.2 1425 102
2026 08 26 22  19 50 15.271   -17 18 15.69  2.4333 3.2953 142.8 19.2 1434 102
2026 08 26 23  19 50 14.063   -17 18 29.38  2.4341 3.2958 142.8 19.2 1444 102
2026 08 27 00  19 50 12.858   -17 18 43.05  2.4349 3.2962 142.7 19.2 1453 102
2026 08 27 01  19 50 11.655   -17 18 56.72  2.4357 3.2966 142.7 19.2 1463 102
2026 08 27 02  19 50 10.455   -17 19 10.37  2.4365 3.2970 142.6 19.2 1472 102
2026 08 27 03  19 50 09.257   -17 19 24.01  2.4373 3.2974 142.6 19.2 1482 102
2026 08 27 04  19 50 08.062   -17 19 37.64  2.4381 3.2978 142.5 19.2 1491 102
2026 08 27 05  19 50 06.869   -17 19 51.26  2.4389 3.2982 142.5 19.2 1501 102
2026 08 27 06  19 50 05.678   -17 20 04.87  2.4397 3.2987 142.4 19.2 1511 102
2026 08 27 07  19 50 04.491   -17 20 18.46  2.4405 3.2991 142.4 19.2 1520 102
2026 08 27 08  19 50 03.305   -17 20 32.04  2.4413 3.2995 142.4 19.2 1530 102
2026 08 27 09  19 50 02.122   -17 20 45.61  2.4421 3.2999 142.3 19.2 1540 102
2026 08 27 10  19 50 00.942   -17 20 59.17  2.4429 3.3003 142.3 19.2 1549 102
2026 08 27 11  19 49 59.763   -17 21 12.71  2.4436 3.3007 142.2 19.2 1559 102
2026 08 27 12  19 49 58.588   -17 21 26.25  2.4444 3.3012 142.2 19.2 1569 102
2026 08 27 13  19 49 57.415   -17 21 39.77  2.4452 3.3016 142.1 19.2 1578 102
2026 08 27 14  19 49 56.244   -17 21 53.28  2.4460 3.3020 142.1 19.2 1588 102
2026 08 27 15  19 49 55.076   -17 22 06.78  2.4468 3.3024 142.0 19.2 1598 102
2026 08 27 16  19 49 53.910   -17 22 20.27  2.4476 3.3028 142.0 19.2 1608 102
2026 08 27 17  19 49 52.747   -17 22 33.74  2.4484 3.3032 142.0 19.2 1617 102
2026 08 27 18  19 49 51.586   -17 22 47.20  2.4492 3.3037 141.9 19.2 1627 102
2026 08 27 19  19 49 50.428   -17 23 00.66  2.4500 3.3041 141.9 19.2 1637 102
2026 08 27 20  19 49 49.272   -17 23 14.09  2.4508 3.3045 141.8 19.2 1647 102
2026 08 27 21  19 49 48.119   -17 23 27.52  2.4517 3.3049 141.8 19.2 1657 102
2026 08 27 22  19 49 46.968   -17 23 40.94  2.4525 3.3053 141.7 19.2 1666 102
2026 08 27 23  19 49 45.819   -17 23 54.34  2.4533 3.3057 141.7 19.2 1676 102
2026 08 28 00  19 49 44.673   -17 24 07.73  2.4541 3.3061 141.6 19.2 1686 102